Погода в Карауле

Погода в Карауле : погода сейчас, прогноз погоды и архив. Всё, что Вы хотите узнать о погоде в Карауле!

Поиск расширенной информации на нашем сайте:

Другие новости

Новости СМИ2

Главная страница сайта

Новости сайта

03.07.2017

Напоминаем, что на нашем специализированном сайте Метеоцентр.Азия вы можете получить высокодетализированные автоматические прогнозы погоды по пунктам России, СНГ и мира в авиационном формате (включающие направление и скорость ветра, видимость, явления погоды, количество и форму облачности, нижнюю и верхнюю границу облачности).


Погода в Карауле - сегодня

Время (UTC), дата Ветер
(°,м/с) 
Видим.   Явления Облачность Т
(°С)
Тd
(°С)
f(%) Тe
(°С)
Pmin
(гПа)
dP
(гПа)
Po
(мм)
O2
(г/м3)
Тmin Tmax R s Состояние
почвы
15 20.11.17 020 (С) 20000 м    ясно 
-28.9 -32.7 70 -33  1024.4  765  347           
18 20.11.17 020 (С) 20000 м    ясно 
-29.6 -33.3 70 -33  1025.5  1.1  766  348           
21 20.11.17 020 (С) 20000 м    ясно 
-30.7 -34.3 71 -34  1026.7  1.2  767  350           
00 21.11.17 020 (С) 20000 м    ясно 
-32.8 -36.4 70 -39  1029.1  2.3  769  354  -33      16  равномерный
сухой снег
100% 
03 21.11.17 100 (В) 20000 м    3/0 верхняя 
[Ci fib]
-30.8 -33.8 75 -38  1029.8  0.7  769  351  -33.2         
06 21.11.17 110 (В) 20000 м    ясно 
-29.6 -33.3 70 -33  1030.6  0.8  770  350           
09 21.11.17 110 (В) 20000 м    ясно 
-29.2 -32.9 70 -33  1031.6  771  350           
12 21.11.17 тихо ()   20000 м    ясно 
-31 -34.7 70 -31  1031.7  0.1  771  352    -29.2       
15 21.11.17 тихо ()   20000 м    ясно 
-32.2 -35.9 70 -32  1031.7  771  354           
21 21.11.17 тихо ()   20000 м    ясно 
-34.3 -37.8 71 -34  1031.7  771  357           
00 22.11.17 тихо ()   20000 м    ясно 
-35.5 -39 70 -36  1034  2.2  772  360  -35.8      17  равномерный
сухой снег
100% 
03 22.11.17 тихо ()   20000 м    ясно 
-30.1 -33.9 69 -30  1034.3  0.4  773  352           
06 22.11.17 020 (С) 20000 м    ясно 
-32.1 -35.7 70 -33  1035  0.7  773  355           
09 22.11.17 тихо ()   20000 м    ясно 
-32.3 -35.9 70 -32  1035.7  0.7  774  356           
12 22.11.17 070 (В) 20000 м    ясно 
-30 -33 75 -31  1036  0.3  774  352    -30       
15 22.11.17 тихо ()   20000 м    ясно 
-28.2 -32 70 -28  1036  774  350           
18 22.11.17 090 (В) 20000 м    ясно 
-28 -31.8 70 -32  1036.3  0.3  774  350           
21 22.11.17 090 (В) 20000 м    ясно 
-27.6 -30.6 76 -33  1036.4  0.1  774  349           
00 23.11.17 090 (В) 20000 м    ясно 
-27 -30.1 75 -34  1037.5  1.1  775  348  -28.4      17  равномерный
сухой снег
100% 
03 23.11.17 110 (В) 20000 м    ясно 
-26.3 -29.4 75 -33  1038.1  0.7  776  348           
06 23.11.17 090 (В) 20000 м    ясно 
-27.9 -30.9 75 -31  1038.2  0.1  776  350           
09 23.11.17 тихо ()   20000 м    ясно 
-28.3 -31.3 76 -28  1038.3  776  351           
12 23.11.17 040 (СВ) 20000 м    ясно 
-28.8 -31.8 75 -32  1038.3  776  351    -26.3       
15 23.11.17 040 (СВ) 20000 м    ясно 
-29.5 -32.6 74 -33  1038.3  776  352           
18 23.11.17 040 (СВ) 20000 м    ясно 
-30.4 -34.1 70 -34  1038.3  776  354           
Время (UTC), дата Ветер
(°,м/с) 
Видим.   Явления Облачность Т
(°С)
Тd
(°С)
f(%) Тe
(°С)
Pmin
(гПа)
dP
(гПа)
Po
(мм)
O2
(г/м3)
Тmin Tmax R s Состояние
почвы

Для получения пояснительной информации подведите курсор к названию столбца.

ПОГОДА в Карауле - архив

Всё, что Вы хотите узнать о погоде в Карауле - удобно и подробно!

Выберите нужную дату (начиная с 1 января 2015* года) и нажмите кнопку "Найти".
Будут отображены архивные сводки погоды по пункту Караул, начиная с указанной даты.


Отображать данные в формате CSV (для использования в таблицах Excel)


Внимание! Наш архив погоды предназначен исключительно для личного некоммерческого использования в познавательных целях. Если Вам необходимы официальные справки о состоянии погоды (для производственных, юридических, коммерческих и т.п. целей), обращайтесь в органы Росгидромета.

*Примечание: данная дата относится к архиву по метеостанциям СССР (Россия, СНГ, Балтия).
Архив по метеостанциям Зарубежной Европы и Азии (кроме Китая) хранится 10 дней, по другим регионам земного шара (Китай, Африка, Америка, Австралия, Океания) - 1 день.

Караул - район местоположения метеостанции


Название, широта, долгота, высота метеостанции:
Караул 70.2°ш. 83.1°д. 29 м над ур. моря [Российская Федерация]

Дополнительная информация

В oтличие oт бoльшинства пoгoдных сайтoв мы публикуем пoдрoбную метеoинфoрмацию в детальнoм прoфессиoнальнoм фoрмате.

Характеристики температуры и влажнoсти вoздуха измеряются на высoте 2 м в тени вдали oт зданий и деревьев.
Скoрoсть ветра измеряется на высoте 10 м (на урoвне рoста челoвека скoрoсть ветра ниже в 1.5-2 раза). Если метеoстанция нахoдится в гoрoде или в лесу, тo скoрoсть ветра занижена на 2-4 м/с пo сравнению с oткрытым местoм. Скoрoсть ветра над акватoриями крупных рек и oзёр, а также на вершинах хoлмoв на 2-5 м/с выше, чем в oбычных услoвиях.
Атмoсфернoе давление в разных тoчках местнoсти мoжет значительнo oтличаться oт давления на метеoстанции, в зависимoсти oт услoвий рельефа (при пoдъёме на 10 м давление пoнижается примернo на 1 мм рт.ст.).